Hourly Data Report for October 22, 2016

All times are specified in Local Standard Time (LST). Add 1 hour to adjust for Daylight Saving Time where and when it is observed.

POND INLET A
NUNAVUT

72°41'22.000" N
77°58'08.000" W
61.60 m
2403206
71095
YIO

Download Data

Hourly Data (October 2016)
Hourly Data Report for October 22, 2016
Temp Definition
°C
Dew Point Temp Definition
°C
Rel Hum Definition
%
Wind Dir Definition
10's deg

Wind Spd Definition
km/h
Visibility Definition
km
Stn Press Definition
kPa
Hmdx Definition


Wind Chill Definition


Weather Definition


TIME
00:00 Legend Double Dagger -14.5 -17.5 78 16 22 16.1 101.53   -24 LegendNANA
01:00 Legend Double Dagger -14.2 -17.2 78 16 22 16.1 101.58   -24 LegendNANA
02:00 Legend Double Dagger -13.9 -17.3 76 17 24 16.1 101.65   -24 LegendNANA
03:00 Legend Double Dagger -13.5 -17.3 73 16 22 16.1 101.71   -23 LegendNANA
04:00 Legend Double Dagger -14.1 -17.1 78 16 21 16.1 101.78   -23 LegendNANA
05:00 Legend Double Dagger -15.1 -18.1 78 16 22 16.1 101.84   -25 LegendNANA
06:00 Legend Double Dagger -16.1 -19.3 77 15 21 16.1 101.90   -26 LegendNANA
07:00 Legend Double Dagger -14.7 -18.2 75 15 24 16.1 101.95   -25 LegendNANA
08:00 Legend Double Dagger -14.7 -18.0 76 16 22 16.1 101.99   -24 LegendNANA
09:00 Legend Double Dagger -15.3 -18.6 76 16 21 16.1 102.03   -25 LegendNANA
10:00 Legend Double Dagger -14.8 -18.0 77 15 22 16.1 102.07   -24 Snow
11:00 Legend Double Dagger -15.1 -18.0 79 15 21 16.1 102.11   -25 LegendNANA
12:00 Legend Double Dagger -14.0 -16.7 80 15 18 16.1 102.17   -22 LegendNANA
13:00 Legend Double Dagger -13.9 -16.3 82 15 18 16.1 102.20   -22 LegendNANA
14:00 Legend Double Dagger -13.9 -16.2 83 16 18 16.1 102.26   -22 LegendNANA
15:00 Legend Double Dagger -15.8 -18.4 81 15 18 16.1 102.30   -25 LegendNANA
16:00 Legend Double Dagger -16.2 -18.9 80 15 18 16.1 102.35   -25 LegendNANA
17:00 Legend Double Dagger -16.2 -19.2 78 15 21 16.1 102.37   -26 LegendNANA
18:00 Legend Double Dagger -15.6 -18.5 79 14 18 16.1 102.39   -24 LegendNANA
19:00 Legend Double Dagger -14.2 -16.7 82 14 17 16.1 102.41   -22 LegendNANA
20:00 Legend Double Dagger -13.9 -16.2 83 16 13 16.1 102.42   -21 LegendNANA
21:00 Legend Double Dagger -13.5 -15.7 84 16 17 16.1 102.41   -22 LegendNANA
22:00 Legend Double Dagger -13.2 -15.2 85 14 15 16.1 102.40   -21 LegendNANA
23:00 Legend Double Dagger -13.6 -14.9 90 16 13 16.1 102.40   -21 LegendNANA

Notes on Data Quality.

Legend

  • E = Estimated
  • M = Missing
  • NA = Not Available
  • ‡ = Partner data that is not subject to review by the National Climate Archives
Date modified: